Theta_e
300 299 298 297 299 300 300 300 301 301 302 301 301 301 301 301 302 303 303 302 303 305
299 299 301 302 301 301 301 301 302 301 300 301 300 301 301 300 301 302 301 302 302 301
299 302 304 303 301 301 298 298 297 298 299 300 299 300 300 301 300 300 301 301 301 301
301 303 304 303 303 302 300 299 298 298 298 298 299 299 299 299 302 299 300 301 301 301
304 303 303 303 303 304 303 302 300 300 300 299 297 298 299 300 301 300 299 301 301 301
303 303 303 303 304 304 304 304 303 302 300 300 300 300 301 301 301 301 301 301 299 300
300 300 300 301 300 303 303 303 303 303 302 301 301 301 302 301 301 301 301 300 301 301
299 301 300 299 299 302 302 302 303 303 302 302 301 302 303 301 299 296 296 296 298 301
300 301 300 299 299 301 302 302 303 302 302 301 302 302 305 303 297 295 294 294 296 300
300 300 299 299 298 297 300 301 302 303 302 301 301 301 302 305 302 299 296 295 295 299
300 299 299 298 298 297 296 299 300 301 302 301 302 301 300 303 303 302 301 299 296 294
300 299 298 297 296 296 296 298 300 301 301 301 301 300 300 300 301 301 301 301 300 300
300 299 297 296 296 295 295 296 299 300 301 302 301 300 299 301 301 300 300 301 301 301
299 299 297 296 295 295 295 295 296 299 300 300 300 299 297 298 302 301 300 300 300 300
Wind_Speed
6 4 4 5 6 7 7 8 9 9 8 9 9 9 7 6 6 8 7 9 8 3
5 6 5 7 7 7 9 8 9 9 9 9 9 9 9 6 8 7 6 7 6 5
5 6 6 6 8 9 7 8 8 9 8 9 10 10 9 7 7 8 7 6 8 7
5 6 6 6 6 7 6 7 8 8 9 9 9 9 8 8 8 7 8 8 8 8
6 7 6 7 7 7 8 8 7 9 9 9 8 8 8 8 8 7 8 8 8 8
6 7 8 8 8 8 9 10 9 9 9 9 9 9 9 7 7 7 7 8 7 9
6 6 6 6 7 8 9 9 9 9 9 9 8 8 9 8 8 8 7 8 8 8
6 6 6 6 7 8 8 8 8 9 10 9 6 7 7 8 8 7 8 7 8 8
6 6 6 6 7 7 7 8 9 9 8 9 7 15 13 8 5 7 7 8 9 7
6 6 6 6 6 7 9 7 9 9 8 9 9 15 12 10 4 5 6 8 9 8
5 5 6 6 7 6 5 6 5 7 8 7 9 15 12 11 7 6 7 6 7 6
5 5 5 6 6 5 5 6 7 5 7 7 7 14 13 8 5 7 7 7 7 8
4 4 4 4 4 4 3 5 5 6 6 9 7 10 13 10 5 6 5 6 7 13
5 2 3 3 3 4 5 6 6 5 5 6 7 8 13 11 5 4 4 5 5 5
Wind_Direction
3 342 326 310 324 335 340 338 345 346 349 351 349 351 357 3 356 358 2 0 355 355
349 342 316 334 343 347 346 341 344 346 347 347 350 352 350 351 358 358 357 358 351 0
337 327 335 337 351 352 336 342 343 345 345 347 351 351 348 349 352 0 11 4 1 0
338 333 335 349 348 337 333 343 348 345 345 351 349 352 351 344 350 359 359 1 359 2
339 341 347 351 349 341 333 335 338 350 353 348 348 343 350 349 347 351 357 357 355 356
352 360 2 2 354 351 346 346 354 358 357 350 346 345 347 353 354 353 355 357 353 352
347 345 348 350 350 359 353 357 357 359 356 355 344 347 345 359 2 1 0 354 350 346
346 3 1 1 352 358 2 354 356 4 1 356 354 349 344 6 14 4 357 353 354 351
3 7 2 1 354 357 351 356 359 356 355 357 359 358 10 35 20 8 4 356 349 2
10 13 360 351 2 0 358 349 1 0 4 3 4 359 9 9 6 15 6 5 2 7
11 11 2 359 357 357 352 351 345 350 359 10 12 8 9 7 8 10 11 6 359 2
354 359 359 9 355 346 353 345 345 339 348 359 353 358 10 9 2 8 6 5 11 15
4 14 10 352 350 325 331 329 348 350 349 352 347 356 1 5 2 3 3 7 14 18
10 8 345 328 357 341 351 357 1 351 346 352 351 347 358 353 3 357 355 2 2 6